Погода в Миндане

Узбекистан     40°13′45″N   71°33′16″E
темп.,
°C
ветер,
м/с
пор.,
м/с
влажн.,
%
обл.,
%
осадки,
мм/ч
давл.,
гПа
погр.,
м
23 октября, сб
сб2323:00+5вюв3354100 0.0 103633
02:00+5юв2252100 0.0 103517
05:00+4всв11586 0.0 103510
08:00+6всв23485 0.0 1035184
11:00+10св45390 0.0 10331116
14:00+13св44270 0.0 10291424
17:00+11св34250 0.0 102858
20:00+7юв22300 0.0 102910
24 октября, вс
вс2423:00+7юв22320 0.0 102811
02:00+5вюв11350 0.0 102610
05:00+4всв00380 0.0 102510
08:00+9всв11270 0.0 102552
11:00+12ссв22230 0.0 1022604
14:00+15ссв32190 0.0 1018889
17:00+12с22250 0.0 101711
20:00+8юв11300 0.0 101810
25 октября, пн
пн2523:00+8вюв11300 0.0 101710
02:00+7вюв11320 0.0 101610
05:00+6в11450 0.0 101710
08:00+11ссв00250 0.0 101813
11:00+15с21190 0.0 1017535
14:00+18с21160 0.0 1015814
17:00+13с11250 0.0 101510
20:00+10ю00290 0.0 101610
26 октября, вт
вт2623:00+9юв11300 0.0 101611
02:00+8зюз11450 0.0 101710
05:00+7зюз115029 0.0 101810
08:00+12юв0027100 0.0 101911
11:00+17ссв2118100 0.0 1019496
14:00+18ссз2216100 0.0 1018863
17:00+13ссз112610 0.0 101911
20:00+10вюв00290 0.0 102010
27 октября, ср
ср2723:00+9ююв00305 0.0 102010
02:00+9зсз0031100 0.0 102010
05:00+8зюз113043 0.0 102010
08:00+12зюз2223100 0.0 102121
11:00+15сз3422100 0.0 1022713
14:00+17сз5425100 0.0 10211347
17:00+13сз2340100 0.0 102256
20:00+11юз1149100 0.0 102443